Regional Weather Roundup
Issued by NWS

Home | Current Version | Previous Version | Graphics & Text | Print | Product List | Glossary On
Versions: 1 2 3 4 5 6 7 8 9 10 11 12 13 14 15 16 17 18 19 20 21 22 23 24 25 26 27 28 29 30 31 32 33 34 35 36 37 38 39 40 41 42 43 44 45 46 47 48 49 50
000
ASUS45 KTFX 020010
RWRMT
MONTANA REGIONAL WEATHER ROUNDUP
NATIONAL WEATHER SERVICE GREAT FALLS MT
600 PM MDT SAT AUG 01 2015

NOTE: "FAIR" INDICATES FEW OR NO CLOUDS BELOW 12000 FEET WITH NO
SIGNIFICANT WEATHER AND/OR OBSTRUCTIONS TO VISIBILITY.

MTZ001>007-043-020100-
WEST OF THE DIVIDE

CITY           SKY/WX    TMP DP  RH WIND       PRES   REMARKS
KALISPELL      CLEAR     99  22   6 W14       29.87S HX  92
MISSOULA       SUNNY     96  28   9 W15       29.93S HX  90
BUTTE          SUNNY     88  30  12 NW9       30.10F
MULLAN PASS    SUNNY     77  27  15 VRB6      30.18F
DEER LODGE       N/A     90  34  13 NW10G17   30.06S
EUREKA           N/A     97  25   7 SW9G17    29.87S HX  90
HAMILTON         N/A     93  28  10 W15       29.94S
LIBBY            N/A     97  25   7 W7        29.88S HX  90
RONAN            N/A     97  38  13 SW9       29.96F HX  92
$$

MTZ008-052>055-020100-
SOUTHWEST MONTANA

CITY           SKY/WX    TMP DP  RH WIND       PRES   REMARKS
BOZEMAN        SUNNY     93  30  10 W12G21    30.00F
DILLON         SUNNY     86  42  21 W15G22    30.06F
W YELLOWSTONE  MOSUNNY   82  27  13 SW3       30.21F
THREE FORKS      N/A     94  29  10 W5        29.98F
TWIN BRIDGES     N/A     91  33  12 E3        30.03F
$$

MTZ009-010-012-014-046-048-049-054-020100-
EAST SLOPES AND CENTRAL MONTANA

CITY           SKY/WX    TMP DP  RH WIND       PRES   REMARKS
CUT BANK       SUNNY     94  27   9 W18       29.91F
GREAT FALLS    SUNNY     96  17   5 NW13      29.91F
MALMSTROM AFB  SUNNY     95  24   8 W12G20    29.90F
HELENA         SUNNY     97  34  11 NW12G21   29.94F HX  91
$$

MTZ011-013-016-021-045-047-050-051-020100-
NORTH CENTRAL MONTANA

CITY           SKY/WX    TMP DP  RH WIND       PRES   REMARKS
HAVRE          SUNNY     94  35  12 NW12      29.82R
LEWISTOWN      SUNNY     92  27   9 NW9G18    29.97S
CHINOOK          N/A     93  37  14 N10       29.80F
FORT BENTON      N/A     97  23   7 NW10G17   29.85S HX  90
$$

MTZ017>020-022>027-061-062-020100-
NORTHEAST MONTANA

CITY           SKY/WX    TMP DP  RH WIND       PRES   REMARKS
GLASGOW        SUNNY     93  41  16 N22       29.79S
JORDAN           N/A     97  25   7 NW16G23   29.83F HX  90
SIDNEY         SUNNY    N/A N/A N/A W18G24    29.75R
WOLF POINT     SUNNY     97  37  12 N23G33    29.77S HX  92
MALTA            N/A     92  50  23 N10       29.79S
PLENTYWOOD       N/A     86  55  35 NW21G26   29.77R
POPLAR           N/A     91  39  16 NW18G30   29.77R
$$

MTZ028>42-056>058-020100-
SOUTHCENTRAL AND SOUTHEAST MONTANA

CITY           SKY/WX    TMP DP  RH WIND       PRES   REMARKS
BAKER          SUNNY     96  28   9 NW18G30   29.84F HX  90
BILLINGS       MOSUNNY   95  29   9 W15G30    29.94S
LIVINGSTON     SUNNY     95  28   9 NW16      30.01F
MILES CITY     SUNNY     99  28   8 NW21G28   29.82F HX  92
FORSYTH          N/A     99  28   8 W13       29.84S HX  92
LAUREL           N/A     96  33  11 W8        29.93F HX  90
ROUNDUP          N/A     96  33  11 NW7       29.84F HX  90
$$

REGIONAL REPORTS...DAKOTAS

CITY           SKY/WX    TMP DP  RH WIND       PRES   REMARKS
WILLISTON      SUNNY     97  34  11 NW21G32   29.73R HX  91
MINOT          SUNNY     88  51  28 S12       29.71F
DICKINSON      SUNNY     92  40  16 W13       29.77F
BEACH          FAIR      93  32  11 NW22G28   29.82S
CROSBY         FAIR      90  39  17 W16       29.70F
BISMARCK       SUNNY     90  55  30 SW5       29.78F
GRAND FORKS    MOSUNNY   84  61  45 S8        29.71F
FARGO          SUNNY     85  63  47 S6        29.73F
BUFFALO SD       N/A     96  31  10 NW7       29.81F HX  90
RAPID CITY     SUNNY     91  50  24 SW5       29.93F
$$

REGIONAL REPORTS...WYOMING/IDAHO/WASHINGTON

CITY           SKY/WX    TMP DP  RH WIND       PRES   REMARKS
GILLETTE       SUNNY     93  24   8 N13       29.99F
SHERIDAN       SUNNY     94  27   9 NW13      29.97F
BUFFALO WY     SUNNY     91  30  11 N7        30.07S
CODY           SUNNY     86  36  16 NE10      30.07S
YELLOWSTONE LA   N/A     72  33  24 E5        30.33F
IDAHO FALLS    SUNNY     92  31  11 VRB5      30.06F
SALMON         SUNNY     95  36  12 N3        29.92F HX  90
BOISE          SUNNY    103  31   8 N8        29.90F HX  96
SPOKANE        PTSUNNY   98  17   5 W7G18     29.89F HX  91
$$

REGIONAL REPORTS...ALBERTA

CITY           SKY/WX    TMP DP  RH WIND       PRES   REMARKS
EDMONTON       MOSUNNY   73  50  43 NW8       29.96S
CALGARY        MOSUNNY   77  54  44 NE17      29.99R
LETHBRIDGE     MOSUNNY   88  48  25 NE15G21   29.87S
MEDICINE HAT   MOSUNNY   90  46  22 E7        29.83F
MILK RIVER       N/A     91  30  11 NW15        N/A
ONEFOUR          N/A     90  32  12 NW13        N/A
$$

REGIONAL REPORTS...SASKATCHEWAN

CITY           SKY/WX    TMP DP  RH WIND       PRES   REMARKS
SWIFT CURRENT  SUNNY     77  52  41 NE16G23   29.92R
REGINA         MOSUNNY   77  55  47 N21G29    29.84R
SASKATOON      PTSUNNY   68  55  64 W12       29.89S
CYPRESS HILLS    N/A     77  48  36 NE6         N/A
VAL MARIE        N/A     82  50  32 NE17G25     N/A
ROCKGLEN         N/A     77  55  47 N17G23      N/A
$$



USA.gov is the U.S. government's official web portal to all federal, state and local government web resources and services.